• In Schweiz
  • Länderverzeichnis
  • Für 7 Tage
  • Wassertemperatur
  • Satellitenkarten
  • Wetterkarte
  • Widgets
  • user-avatar
    Anmelden

    Stündliche Wetter Kalemie

    Heute, 20 Februar, Dienstag

    Zeit Temperatur Niederschläge Wind Luftdruck Luftfeuchtigkeit
    00:00 +29°C° 0,2 mm 1 m/S 704 mmHg 50%
    01:00 +28°C° 0,2 mm 1 m/S 703 mmHg 53%
    02:00 +27°C° 0 mm 1 m/S 703 mmHg 60%
    03:00 +27°C° 0 mm 1 m/S 703 mmHg 62%
    04:00 +26°C° 0 mm 1 m/S 703 mmHg 64%
    05:00 +26°C° 0 mm 1 m/S 703 mmHg 66%
    06:00 +27°C° 0 mm 2 m/S 704 mmHg 63%
    07:00 +28°C° 0 mm 2 m/S 704 mmHg 59%
    08:00 +30°C° 0 mm 1 m/S 705 mmHg 54%
    09:00 +34°C° 0 mm 1 m/S 705 mmHg 44%
    10:00 +39°C° 0 mm 1 m/S 706 mmHg 35%
    11:00 +42°C° 0 mm 1 m/S 706 mmHg 25%
    12:00 +40°C° 0 mm 1 m/S 705 mmHg 27%
    13:00 +39°C° 0 mm 1 m/S 704 mmHg 28%
    14:00 +37°C° 0 mm 2 m/S 703 mmHg 30%
    15:00 +37°C° 0 mm 2 m/S 703 mmHg 30%
    16:00 +37°C° 0 mm 2 m/S 702 mmHg 29%
    17:00 +37°C° 0 mm 2 m/S 702 mmHg 29%
    18:00 +34°C° 0 mm 1 m/S 702 mmHg 33%
    19:00 +33°C° 0 mm 1 m/S 702 mmHg 36%
    20:00 +31°C° 0 mm 1 m/S 702 mmHg 40%
    21:00 +30°C° 0 mm 1 m/S 702 mmHg 41%
    22:00 +30°C° 0 mm 1 m/S 702 mmHg 43%
    23:00 +29°C° 0 mm 1 m/S 703 mmHg 44%

    Morgen, 21 Februar, Mittwoch

    Zeit Temperatur Niederschläge Wind Luftdruck Luftfeuchtigkeit
    00:00 +29°C° 0 mm 1 m/S 702 mmHg 46%
    01:00 +28°C° 0 mm 1 m/S 702 mmHg 48%
    02:00 +28°C° 0 mm 1 m/S 702 mmHg 50%
    03:00 +27°C° 0 mm 1 m/S 702 mmHg 52%
    04:00 +27°C° 0 mm 1 m/S 702 mmHg 54%
    05:00 +26°C° 0 mm 1 m/S 702 mmHg 56%
    06:00 +28°C° 0 mm 1 m/S 703 mmHg 54%
    07:00 +29°C° 0 mm 2 m/S 703 mmHg 51%
    08:00 +30°C° 0 mm 2 m/S 704 mmHg 49%
    09:00 +34°C° 0 mm 2 m/S 704 mmHg 42%
    10:00 +36°C° 0 mm 1 m/S 704 mmHg 35%
    11:00 +39°C° 0 mm 1 m/S 705 mmHg 28%
    12:00 +39°C° 0 mm 1 m/S 704 mmHg 27%
    13:00 +39°C° 0 mm 1 m/S 703 mmHg 26%
    14:00 +37°C° 0 mm 1 m/S 702 mmHg 25%
    15:00 +38°C° 0 mm 2 m/S 702 mmHg 27%
    16:00 +37°C° 0 mm 2 m/S 701 mmHg 28%
    17:00 +36°C° 0 mm 3 m/S 701 mmHg 29%
    18:00 +35°C° 0 mm 2 m/S 701 mmHg 32%
    19:00 +32°C° 0 mm 1 m/S 701 mmHg 35%
    20:00 +31°C° 0 mm 1 m/S 701 mmHg 37%
    21:00 +31°C° 0 mm 1 m/S 702 mmHg 38%
    22:00 +30°C° 0 mm 1 m/S 702 mmHg 39%
    23:00 +30°C° 0 mm 1 m/S 702 mmHg 40%

    übermorgen, 22 Februar, Donnerstag

    Zeit Temperatur Niederschläge Wind Luftdruck Luftfeuchtigkeit
    00:00 +29°C° 0 mm 1 m/S 702 mmHg 42%
    01:00 +28°C° 0 mm 1 m/S 702 mmHg 45%
    02:00 +28°C° 0 mm 1 m/S 702 mmHg 47%
    03:00 +27°C° 0 mm 2 m/S 701 mmHg 52%
    04:00 +27°C° 0 mm 2 m/S 701 mmHg 57%
    05:00 +26°C° 0 mm 2 m/S 701 mmHg 62%
    06:00 +27°C° 0 mm 2 m/S 702 mmHg 61%
    07:00 +28°C° 0 mm 2 m/S 703 mmHg 59%
    08:00 +29°C° 0 mm 2 m/S 703 mmHg 57%
    09:00 +34°C° 0 mm 2 m/S 704 mmHg 46%
    10:00 +37°C° 0 mm 1 m/S 704 mmHg 35%
    11:00 +42°C° 0 mm 1 m/S 705 mmHg 24%
    12:00 +42°C° 0 mm 1 m/S 703 mmHg 23%
    13:00 +41°C° 0 mm 1 m/S 702 mmHg 22%
    14:00 +40°C° 0 mm 1 m/S 701 mmHg 20%
    15:00 +40°C° 0 mm 1 m/S 701 mmHg 21%
    16:00 +40°C° 0 mm 1 m/S 701 mmHg 21%
    17:00 +39°C° 0 mm 1 m/S 700 mmHg 22%
    18:00 +37°C° 0 mm 1 m/S 701 mmHg 23%
    19:00 +36°C° 0 mm 1 m/S 701 mmHg 25%
    20:00 +34°C° 0 mm 1 m/S 701 mmHg 26%
    21:00 +34°C° 0 mm 1 m/S 701 mmHg 27%
    22:00 +31°C° 0 mm 0 m/S 701 mmHg 29%
    23:00 +30°C° 0 mm 0 m/S 702 mmHg 30%

    23 Februar, Freitag

    Zeit Temperatur Niederschläge Wind Luftdruck Luftfeuchtigkeit
    00:00 +32°C° 0 mm 1 m/S 702 mmHg 31%
    01:00 +31°C° 0 mm 1 m/S 701 mmHg 32%
    02:00 +31°C° 0 mm 2 m/S 701 mmHg 33%
    03:00 +30°C° 0 mm 2 m/S 702 mmHg 40%
    04:00 +29°C° 0 mm 2 m/S 702 mmHg 48%
    05:00 +29°C° 0 mm 3 m/S 702 mmHg 55%
    06:00 +29°C° 0 mm 3 m/S 703 mmHg 55%
    07:00 +29°C° 0 mm 3 m/S 703 mmHg 55%
    08:00 +30°C° 0 mm 4 m/S 704 mmHg 55%
    09:00 +33°C° 0 mm 4 m/S 704 mmHg 49%
    10:00 +35°C° 0 mm 3 m/S 704 mmHg 43%
    11:00 +37°C° 0 mm 3 m/S 705 mmHg 38%
    12:00 +37°C° 0 mm 3 m/S 704 mmHg 36%
    13:00 +37°C° 0 mm 2 m/S 703 mmHg 35%
    14:00 +37°C° 0 mm 2 m/S 702 mmHg 33%
    15:00 +37°C° 0 mm 2 m/S 701 mmHg 35%
    16:00 +37°C° 0 mm 2 m/S 701 mmHg 36%
    17:00 +36°C° 0 mm 2 m/S 701 mmHg 37%
    18:00 +34°C° 1,8 mm 2 m/S 702 mmHg 45%
    19:00 +31°C° 1,8 mm 2 m/S 702 mmHg 54%
    20:00 +29°C° 1,8 mm 2 m/S 703 mmHg 62%
    21:00 +29°C° 2 mm 2 m/S 703 mmHg 65%
    22:00 +28°C° 2 mm 3 m/S 703 mmHg 68%
    23:00 +28°C° 2 mm 4 m/S 704 mmHg 71%

    24 Februar, Samstag

    Zeit Temperatur Niederschläge Wind Luftdruck Luftfeuchtigkeit
    00:00 +27°C° 0 mm 4 m/S 703 mmHg 72%
    01:00 +27°C° 0 mm 3 m/S 703 mmHg 72%
    02:00 +27°C° 0 mm 3 m/S 702 mmHg 73%
    03:00 +26°C° 0 mm 3 m/S 702 mmHg 73%
    04:00 +26°C° 0 mm 3 m/S 702 mmHg 74%
    05:00 +26°C° 0 mm 3 m/S 702 mmHg 75%
    06:00 +26°C° 0 mm 3 m/S 703 mmHg 72%
    07:00 +27°C° 0 mm 3 m/S 704 mmHg 69%
    08:00 +28°C° 0 mm 3 m/S 704 mmHg 66%
    09:00 +30°C° 0 mm 3 m/S 705 mmHg 57%
    10:00 +34°C° 0 mm 3 m/S 705 mmHg 49%
    11:00 +36°C° 0 mm 3 m/S 705 mmHg 40%
    12:00 +37°C° 0 mm 3 m/S 704 mmHg 37%
    13:00 +38°C° 0 mm 2 m/S 703 mmHg 33%
    14:00 +39°C° 0 mm 2 m/S 703 mmHg 30%
    15:00 +39°C° 0 mm 2 m/S 702 mmHg 31%
    16:00 +38°C° 0 mm 2 m/S 702 mmHg 32%
    17:00 +37°C° 0 mm 2 m/S 702 mmHg 34%
    18:00 +36°C° 0,2 mm 2 m/S 703 mmHg 38%
    19:00 +34°C° 0,2 mm 2 m/S 703 mmHg 42%
    20:00 +32°C° 0,2 mm 2 m/S 703 mmHg 46%
    21:00 +31°C° 0,9 mm 2 m/S 703 mmHg 51%
    22:00 +30°C° 0,9 mm 2 m/S 703 mmHg 57%
    23:00 +29°C° 0,9 mm 2 m/S 703 mmHg 62%

    25 Februar, Sonntag

    Zeit Temperatur Niederschläge Wind Luftdruck Luftfeuchtigkeit
    00:00 +29°C° 0 mm 1 m/S 703 mmHg 62%
    01:00 +28°C° 0 mm 1 m/S 703 mmHg 63%
    02:00 +28°C° 0 mm 1 m/S 702 mmHg 64%
    03:00 +28°C° 0 mm 1 m/S 702 mmHg 65%
    04:00 +27°C° 0 mm 1 m/S 703 mmHg 66%
    05:00 +27°C° 0 mm 2 m/S 703 mmHg 67%
    06:00 +28°C° 0 mm 2 m/S 703 mmHg 64%
    07:00 +29°C° 0 mm 3 m/S 703 mmHg 60%
    08:00 +30°C° 0 mm 3 m/S 704 mmHg 57%
    09:00 +34°C° 0 mm 3 m/S 704 mmHg 48%
    10:00 +36°C° 0 mm 3 m/S 704 mmHg 39%
    11:00 +39°C° 0 mm 3 m/S 704 mmHg 30%
    12:00 +40°C° 0 mm 2 m/S 703 mmHg 27%
    13:00 +41°C° 0 mm 2 m/S 703 mmHg 25%
    14:00 +42°C° 0 mm 1 m/S 702 mmHg 22%
    15:00 +40°C° 0 mm 1 m/S 702 mmHg 24%
    16:00 +39°C° 0 mm 1 m/S 702 mmHg 25%
    17:00 +37°C° 0 mm 1 m/S 702 mmHg 27%
    18:00 +36°C° 0,1 mm 1 m/S 702 mmHg 31%
    19:00 +34°C° 0,1 mm 1 m/S 702 mmHg 34%
    20:00 +33°C° 0,1 mm 1 m/S 702 mmHg 38%
    21:00 +32°C° 0 mm 1 m/S 702 mmHg 40%
    22:00 +32°C° 0 mm 1 m/S 702 mmHg 42%
    23:00 +31°C° 0 mm 1 m/S 702 mmHg 44%
    Mehr zeigen